FW2343 Weather Reports


time (UTC)temp
F
wind
direction
speed
knots
gust
knots
rain 1hr
in
rain 24hr
in
rain mn
in
humidity
%
barometer
mb
20260507160706 72 300 2.6 7.0 0.00 0.08 0.00 37 1010.6
20260507160215 73 279 1.7 4.3 0.00 0.08 0.00 37 1010.7
20260507155711 73 0 1.7 5.2 0.00 0.08 0.00 37 1010.8
20260507155206 72 292 1.7 7.0 0.00 0.08 0.00 38 1010.9
20260507154711 72 14 3.5 7.0 0.00 0.08 0.00 39 1010.8
20260507154210 71 351 4.3 7.0 0.00 0.08 0.00 39 1010.8
20260507153705 71 30 3.5 3.5 0.00 0.08 0.00 38 1010.8
20260507153205 71 113 0.9 7.0 0.00 0.08 0.00 38 1010.8
20260507152715 72 291 0.9 7.0 0.00 0.08 0.00 39 1010.8
20260507152206 72 288 2.6 6.1 0.00 0.08 0.00 38 1010.8
20260507151709 72 15 2.6 7.8 0.00 0.08 0.00 41 1011.0
20260507151209 71 343 2.6 7.8 0.00 0.08 0.00 40 1010.9
20260507150705 71 300 3.5 4.3 0.00 0.08 0.00 40 1011.0
20260507150219 71 275 1.7 4.3 0.00 0.08 0.00 37 1011.0
20260507145714 72 358 1.7 4.3 0.00 0.08 0.00 39 1011.1
20260507145208 71 310 0.9 4.3 0.00 0.08 0.00 42 1011.1
20260507144211 71 0 0.0 3.5 0.00 0.08 0.00 42 1011.1
20260507143218 71 154 0.9 7.8 0.00 0.08 0.00 44 1011.2
20260507142711 70 61 2.6 8.7 0.00 0.08 0.00 46 1011.4
20260507142209 69 47 2.6 8.7 0.00 0.08 0.00 45 1011.5
20260507141712 70 59 4.3 8.7 0.00 0.08 0.00 47 1011.5
20260507141205 70 71 1.7 7.0 0.00 0.08 0.00 46 1011.6
20260507135218 69 64 3.5 7.0 0.00 0.08 0.00 46 1012.0
20260507134716 69 78 2.6 5.2 0.00 0.08 0.00 47 1012.1
20260507134217 69 60 1.7 5.2 0.00 0.08 0.00 47 1012.2
20260507133719 69 149 0.0 7.0 0.00 0.08 0.00 48 1012.2
20260507133218 69 358 0.9 8.7 0.00 0.08 0.00 47 1012.4
20260507132207 68 330 2.6 7.8 0.00 0.08 0.00 48 1012.5
20260507130711 67 45 2.6 7.8 0.00 0.08 0.00 52 1012.6
20260507130214 67 33 1.7 7.8 0.00 0.08 0.00 52 1012.6
20260507125713 67 4 2.6 2.6 0.00 0.08 0.00 52 1012.7
20260507125216 67 340 0.0 3.5 0.00 0.08 0.00 52 1012.7
20260507124718 68 333 0.0 5.2 0.00 0.08 0.00 52 1012.7
20260507123717 67 358 0.9 5.2 0.00 0.08 0.00 53 1012.8
20260507123212 67 344 0.0 4.3 0.00 0.08 0.00 53 1012.8
20260507122713 68 334 0.0 11.3 0.00 0.08 0.00 51 1012.9
20260507122217 68 278 0.9 11.3 0.00 0.08 0.00 50 1013.0
20260507121706 68 16 2.6 5.2 0.00 0.08 0.00 50 1013.0
20260507121230 68 258 0.0 7.0 0.00 0.08 0.00 52 1013.0
20260507120713 67 261 0.9 7.0 0.00 0.08 0.00 52 1013.1
20260507120218 67 50 0.9 7.0 0.00 0.08 0.00 52 1013.2
20260507115713 67 0 0.0 5.2 0.00 0.08 0.00 53 1013.1
20260507115218 67 227 0.9 7.0 0.00 0.08 0.00 53 1013.2
20260507114706 66 282 0.0 7.0 0.00 0.08 0.00 53 1013.4
20260507113712 66 272 0.9 7.0 0.00 0.08 0.00 52 1013.4
20260507113206 65 345 1.7 6.1 0.00 0.08 0.00 56 1013.5
20260507112707 65 7 0.9 5.2 0.00 0.08 0.00 54 1013.5
20260507112208 65 305 0.9 5.2 0.00 0.08 0.00 52 1013.5
20260507111705 66 289 1.7 6.1 0.00 0.08 0.00 52 1013.5
20260507111232 66 150 0.0 7.0 0.00 0.08 0.00 52 1013.7
20260507110713 65 209 1.7 7.0 0.00 0.08 0.00 53 1013.7
20260507110205 65 232 0.9 6.1 0.00 0.08 0.00 54 1013.7
20260507105206 64 350 1.7 9.6 0.00 0.08 0.00 55 1013.9
20260507104729 64 262 0.9 9.6 0.00 0.08 0.00 53 1013.8
20260507104219 64 123 0.0 5.2 0.00 0.08 0.00 53 1013.8
20260507103213 64 279 0.9 8.7 0.00 0.08 0.00 59 1014.0
20260507102712 64 251 1.7 4.3 0.00 0.08 0.00 57 1014.0
20260507102209 64 262 0.9 6.1 0.00 0.08 0.00 57 1013.9
20260507101235 63 279 1.7 6.1 0.00 0.08 0.00 57 1014.0
20260507100707 63 281 2.6 6.1 0.00 0.08 0.00 61 1014.1
20260507100217 63 352 2.6 6.1 0.00 0.08 0.00 62 1014.1
20260507095716 63 19 2.6 6.1 0.00 0.08 0.00 67 1014.1
20260507095218 62 129 0.0 4.3 0.00 0.08 0.00 65 1014.2
20260507094717 63 125 0.0 4.3 0.00 0.08 0.00 64 1014.2
20260507093738 61 73 0.9 7.0 0.00 0.08 0.00 67 1014.3
20260507093217 61 333 0.9 7.0 0.00 0.08 0.00 66 1014.2
20260507092710 61 279 0.9 4.3 0.00 0.08 0.00 66 1014.2
20260507092210 61 0 0.0 4.3 0.00 0.08 0.00 65 1014.2
20260507090714 61 226 1.7 8.7 0.00 0.08 0.00 66 1014.3
20260507090214 60 213 1.7 0.0 0.00 0.08 0.00 70 1014.3
20260507085719 60 0 0.0 0.0 0.00 0.08 0.00 70 1014.3
20260507084717 60 0 0.0 0.9 0.00 0.08 0.00 71 1014.3
20260507083717 59 300 0.0 3.5 0.00 0.08 0.00 71 1014.3
20260507082717 59 261 0.0 3.5 0.00 0.08 0.00 74 1014.3
20260507082217 58 0 0.0 0.0 0.00 0.08 0.00 72 1014.3
20260507081705 59 0 0.0 0.0 0.00 0.08 0.00 74 1014.4
20260507081218 59 0 0.0 0.0 0.00 0.08 0.00 74 1014.4
20260507080709 58 0 0.0 0.0 0.00 0.08 0.00 75 1014.4
20260507080210 58 0 0.0 0.0 0.00 0.08 0.00 77 1014.4
20260507075711 57 0 0.0 0.0 0.00 0.08 0.00 76 1014.4
20260507075215 57 0 0.0 0.0 0.00 0.08 0.00 77 1014.4
20260507074705 57 0 0.0 0.0 0.00 0.08 0.00 77 1014.4
20260507074212 57 0 0.0 0.0 0.00 0.08 0.00 77 1014.3
20260507073718 57 0 0.0 0.0 0.00 0.08 0.00 79 1014.3
20260507072710 55 0 0.0 0.0 0.00 0.08 0.00 83 1014.4
20260507071716 54 0 0.0 0.0 0.00 0.08 0.00 86 1014.4
20260507071207 53 0 0.0 0.0 0.00 0.08 0.00 87 1014.5
20260507070707 53 0 0.0 0.0 0.00 0.08 0.00 87 1014.6
20260507070218 52 0 0.0 0.0 0.00 0.08 0.00 88 1014.6
20260507065712 52 0 0.0 0.0 0.00 0.08 0.00 88 1014.6
20260507065209 52 0 0.0 0.0 0.00 0.08 0.00 90 1014.6
20260507064213 51 0 0.0 0.0 0.00 0.08 0.00 91 1014.5
20260507063710 51 0 0.0 0.0 0.00 0.08 0.00 91 1014.7
20260507063212 50 0 0.0 3.5 0.00 0.08 0.00 92 1014.7
20260507062710 50 0 0.0 5.2 0.00 0.08 0.00 92 1014.7
20260507062218 49 208 0.0 5.2 0.00 0.08 0.00 93 1014.6
20260507061717 49 180 2.6 5.2 0.00 0.08 0.00 93 1014.6
20260507061206 49 217 2.6 5.2 0.00 0.08 0.00 93 1014.5
20260507060714 49 212 3.5 5.2 0.00 0.08 0.00 93 1014.7
20260507060207 48 203 1.7 3.5 0.00 0.08 0.00 94 1014.8
20260507055717 48 236 1.7 3.5 0.00 0.08 0.00 94 1014.7
20260507054207 48 232 1.7 4.3 0.00 0.08 0.00 95 1014.5
20260507053216 47 205 0.9 3.5 0.00 0.08 0.00 95 1014.5
20260507052705 47 220 1.7 3.5 0.00 0.08 0.00 95 1014.4
20260507052209 47 243 0.0 0.0 0.00 0.08 0.00 95 1014.4
20260507051712 46 0 0.0 0.9 0.00 0.08 0.00 95 1014.3
20260507051213 46 239 0.0 0.9 0.00 0.08 0.00 95 1014.4
20260507050706 46 239 0.0 1.7 0.00 0.08 0.00 95 1014.3
20260507050240 46 195 0.0 1.7 0.00 0.08 0.00 95 1014.3
20260507045715 46 240 0.0 1.7 0.00 0.08 0.00 95 1014.3
20260507044709 45 0 0.0 0.0 0.00 0.08 0.00 95 1014.2
20260507044217 45 0 0.0 0.0 0.00 0.08 0.00 94 1014.2
20260507043712 45 0 0.0 0.0 0.00 0.08 0.00 94 1014.2
20260507043215 45 0 0.0 0.0 0.00 0.08 0.00 94 1014.2
20260507042718 46 0 0.0 0.0 0.00 0.08 0.00 94 1014.2
20260507042211 46 0 0.0 0.0 0.00 0.08 0.00 94 1014.2
20260507041719 46 0 0.0 0.0 0.00 0.08 0.00 94 1014.1
20260507040719 46 0 0.0 0.0 0.00 0.08 0.00 94 1014.1
20260507035715 46 0 0.0 0.0 0.00 0.08 0.00 94 1014.1
20260507035218 47 0 0.0 0.0 0.00 0.08 0.00 94 1014.1
20260507034709 47 0 0.0 0.0 0.00 0.08 0.00 94 1014.1
20260507034215 47 0 0.0 0.0 0.00 0.08 0.00 94 1014.2
20260507033215 47 0 0.0 0.0 0.00 0.08 0.00 94 1014.1
20260507032210 47 0 0.0 0.0 0.00 0.08 0.00 94 1014.2
20260507031212 47 0 0.0 0.0 0.00 0.08 0.00 94 1014.2
20260507030709 47 0 0.0 0.0 0.00 0.08 0.00 94 1014.2
20260507030208 47 0 0.0 0.0 0.00 0.08 0.00 94 1014.2
20260507025715 47 0 0.0 0.0 0.00 0.08 0.00 94 1014.2
20260507025214 47 0 0.0 0.0 0.00 0.08 0.00 94 1014.1
20260507024716 47 0 0.0 0.0 0.00 0.08 0.00 93 1014.2
20260507024205 48 0 0.0 0.0 0.00 0.08 0.00 93 1014.2
20260507023712 48 0 0.0 0.0 0.00 0.08 0.00 93 1014.1
20260507023213 48 0 0.0 0.0 0.00 0.08 0.00 93 1014.2
20260507022718 48 0 0.0 0.0 0.00 0.08 0.00 93 1014.2
20260507022213 48 0 0.0 0.0 0.00 0.08 0.00 93 1014.2
20260507021211 48 0 0.0 2.6 0.00 0.08 0.00 93 1014.3
20260507020719 49 0 0.0 2.6 0.00 0.08 0.00 93 1014.2
20260507020212 49 161 1.7 1.7 0.00 0.08 0.00 93 1014.3
20260507015205 49 0 0.0 0.0 0.00 0.08 0.00 93 1014.3
20260507014214 49 0 0.0 0.0 0.00 0.08 0.00 93 1014.3
20260507013218 49 0 0.0 0.0 0.00 0.08 0.00 93 1014.4
20260507012733 49 0 0.0 0.0 0.00 0.08 0.00 92 1014.4
20260507012226 49 0 0.0 0.9 0.00 0.08 0.00 92 1014.4
20260507011705 49 0 0.0 0.9 0.00 0.08 0.00 92 1014.5
20260507011217 49 170 0.0 0.9 0.00 0.08 0.00 92 1014.5
20260507010215 49 205 0.0 2.6 0.00 0.08 0.00 92 1014.6
20260507005713 50 180 0.9 3.5 0.00 0.08 0.00 91 1014.7
20260507005206 50 241 0.9 3.5 0.00 0.08 0.00 91 1014.7
20260507004717 50 237 0.9 2.6 0.00 0.08 0.00 91 1014.7
20260507004206 50 246 0.9 3.5 0.00 0.08 0.00 91 1014.8
20260507003712 50 206 1.7 3.5 0.00 0.08 0.00 91 1014.8
20260507002210 50 181 1.7 3.5 0.00 0.08 0.00 91 1014.7
20260507001710 51 185 1.7 4.3 0.00 0.08 0.00 90 1014.7
20260507001212 51 196 1.7 4.3 0.00 0.08 0.00 90 1014.7
20260507000717 51 194 2.6 4.3 0.00 0.08 0.00 90 1014.8
20260506235718 51 213 1.7 3.5 0.00 0.08 0.00 90 1014.8
20260506235211 51 202 1.7 4.3 0.00 0.08 0.00 90 1014.8
20260506234707 51 199 2.6 4.3 0.00 0.08 0.00 90 1014.8
20260506234234 51 236 2.6 4.3 0.00 0.08 0.00 89 1014.8
20260506233716 51 213 2.6 5.2 0.00 0.08 0.00 89 1014.8
20260506233207 51 188 2.6 5.2 0.00 0.08 0.00 89 1014.7
20260506232205 52 217 2.6 3.5 0.00 0.08 0.00 89 1014.8
20260506231715 52 206 1.7 3.5 0.00 0.08 0.00 89 1014.8
20260506230216 52 199 0.0 2.6 0.00 0.08 0.00 90 1014.8
20260506225713 52 216 0.9 2.6 0.00 0.08 0.00 90 1014.7
20260506225207 52 220 1.7 2.6 0.00 0.08 0.00 90 1014.7
20260506224713 52 216 1.7 2.6 0.00 0.08 0.00 90 1014.8
20260506224205 52 189 0.9 2.6 0.00 0.08 0.00 90 1014.8
20260506223717 53 213 0.9 2.6 0.00 0.08 0.00 91 1014.7
20260506223208 53 182 0.9 2.6 0.00 0.08 0.00 90 1014.7
20260506222716 53 203 0.9 1.7 0.00 0.08 0.00 90 1014.8
20260506222214 53 209 0.9 2.6 0.00 0.08 0.00 90 1014.7
20260506221714 53 0 0.0 2.6 0.00 0.08 0.00 89 1014.6
20260506221208 53 233 0.9 3.5 0.00 0.08 0.00 89 1014.6
20260506220709 53 229 0.9 4.3 0.00 0.08 0.00 89 1014.7
20260506220217 53 243 1.7 4.3 0.00 0.08 0.08 89 1014.5
20260506215712 53 230 1.7 4.3 0.00 0.08 0.08 89 1014.5
20260506215207 53 220 1.7 3.5 0.00 0.08 0.08 88 1014.5
20260506214707 53 202 1.7 3.5 0.00 0.08 0.08 88 1014.4
20260506213712 54 182 1.7 2.6 0.00 0.08 0.08 88 1014.4
20260506213219 54 215 1.7 4.3 0.00 0.08 0.08 88 1014.4
20260506212710 54 229 1.7 4.3 0.00 0.08 0.08 89 1014.4
20260506212215 54 215 1.7 4.3 0.00 0.08 0.08 89 1014.4
20260506211714 54 209 1.7 3.5 0.00 0.08 0.08 89 1014.3
20260506211210 54 0 0.0 1.7 0.00 0.08 0.08 89 1014.3
20260506210716 54 203 0.0 1.7 0.00 0.08 0.08 90 1014.4
20260506210216 54 217 0.9 1.7 0.00 0.08 0.08 90 1014.4
20260506205217 54 198 1.7 2.6 0.00 0.08 0.08 91 1014.3
20260506204709 54 206 0.9 3.5 0.00 0.08 0.08 91 1014.3
20260506204218 54 232 0.9 3.5 0.00 0.08 0.08 91 1014.2
20260506203706 54 233 1.7 3.5 0.00 0.08 0.08 91 1014.3
20260506203205 54 240 1.7 3.5 0.00 0.08 0.08 90 1014.2
20260506202708 54 234 2.6 2.6 0.00 0.08 0.08 90 1014.2
20260506201708 54 212 0.0 2.6 0.00 0.08 0.08 91 1014.0
20260506201211 54 215 0.9 1.7 0.00 0.08 0.08 91 1014.0
20260506200734 54 198 0.9 1.7 0.00 0.08 0.08 91 1014.0
20260506200218 54 279 0.0 2.6 0.00 0.08 0.08 91 1014.0
20260506195718 54 198 0.0 2.6 0.00 0.08 0.08 91 1013.9
20260506194733 55 0 0.0 2.6 0.00 0.08 0.08 91 1013.7
20260506194219 55 222 1.7 4.3 0.00 0.08 0.08 91 1013.7
20260506193706 55 172 0.9 4.3 0.00 0.08 0.08 90 1013.6
20260506192708 55 163 1.7 3.5 0.00 0.08 0.08 90 1013.4
20260506192217 55 161 1.7 1.7 0.00 0.08 0.08 90 1013.4
20260506191723 55 140 0.0 1.7 0.00 0.08 0.08 90 1013.4
20260506191214 56 132 0.0 2.6 0.00 0.08 0.08 90 1013.3
20260506190713 56 195 0.0 5.2 0.01 0.08 0.08 90 1013.3
20260506185718 56 264 2.6 3.5 0.01 0.08 0.08 90 1013.2
20260506185210 56 210 0.9 3.5 0.02 0.08 0.08 90 1013.2
20260506184713 56 232 1.7 3.5 0.05 0.08 0.08 90 1013.1
20260506183717 56 7 0.9 4.3 0.07 0.08 0.08 89 1013.1
20260506182712 56 240 1.7 7.0 0.07 0.08 0.08 88 1013.0
20260506182219 55 246 2.6 7.0 0.07 0.08 0.08 88 1013.0
20260506181713 55 237 2.6 7.0 0.07 0.08 0.08 88 1012.8
20260506181231 55 236 0.9 7.0 0.08 0.08 0.08 88 1012.7
20260506180710 55 0 0.0 7.0 0.07 0.07 0.07 88 1012.6
20260506175709 55 185 1.7 4.3 0.07 0.07 0.07 88 1012.5
20260506174207 56 181 5.2 13.0 0.01 0.01 0.01 85 1012.5
20260506173713 56 182 5.2 13.0 0.01 0.01 0.01 84 1012.3
20260506173207 56 205 7.0 13.0 0.01 0.01 0.01 83 1012.3
20260506172714 56 229 4.3 12.2 0.01 0.01 0.01 82 1012.2
20260506172212 56 158 5.2 15.6 0.01 0.01 0.01 81 1012.3
20260506171714 56 188 6.1 16.5 0.00 0.00 0.00 80 1012.3
20260506171215 57 208 6.1 16.5 0.00 0.00 0.00 79 1011.7
20260506170212 59 227 6.1 12.2 0.00 0.00 0.00 71 1012.1
20260506165705 61 227 3.5 12.2 0.00 0.00 0.00 68 1011.9
20260506165209 62 37 3.5 8.7 0.00 0.00 0.00 62 1011.5
20260506164707 62 0 0.0 1.7 0.00 0.01 0.00 64 1011.3
20260506164206 63 338 1.7 8.7 0.00 0.02 0.00 65 1011.3
20260506163705 63 299 1.7 16.5 0.00 0.03 0.00 65 1011.2
20260506163219 63 296 1.7 16.5 0.00 0.04 0.00 63 1011.1
20260506162710 63 275 2.6 16.5 0.00 0.05 0.00 62 1011.0
20260506162228 63 261 3.5 12.2 0.00 0.06 0.00 62 1011.0
20260506161715 63 316 3.5 12.2 0.00 0.08 0.00 60 1011.0
20260506161209 64 9 1.7 10.4 0.00 0.09 0.00 62 1011.0